Regional Weather Roundup
Issued by NWS Sterling, VA

Home | Current Version | Previous Version | Text Only | Print | Product List | Glossary Off
Versions: 1 2 3 4 5 6 7 8 9 10 11 12 13 14 15 16 17 18 19 20 21 22 23 24 25 26 27 28 29 30 31 32 33 34 35 36 37 38 39 40 41 42 43 44 45 46 47 48 49 50

000
ASUS41 KLWX 260010
RWRLWX

REGIONAL WEATHER ROUNDUP
NATIONAL WEATHER SERVICE BALTIMORE MD/WASHINGTON DC
800 PM EDT FRI JUL 25 2014

Note: "FAIR" indicates few or no clouds below 12,000 feet
with no significant weather and/or obstructions to visibility.
 TC=TEMPERATURE CELSIUS

 * =Non NWS site. Station does not report precipitation (e.g. rain,
    snow, etc.), thunder, or fog.

DCZ001-MDZ009-015-VAZ040>042-051-053>054-260100-
WASHINGTON METRO
  /KDAA//-FT BELVOIR

CITY           SKY/WX    TMP DP  RH WIND       PRES   REMARKS
WASHINGTON NAT MOCLDY    82  55  39 W8        30.02R
DULLES         PTCLDY    76  56  49 S3        30.02R
ANDREWS AFB    CLEAR     75  59  58 SE6       30.02R
QUANTICO       PTCLDY    79  60  52 S9        30.03R
COLLEGE PARK*  CLEAR     79  57  47 E6        30.02R
LEESBURG*      CLEAR     79  64  61 S5        30.02S
MANASSAS*      CLEAR     75  64  69 S6        30.02R
GAITHERSBURG*  CLEAR     73  54  49 CALM      30.06R

$$

MDZ006>007-011-014-260100-
BALTIMORE METRO

CITY           SKY/WX    TMP DP  RH WIND       PRES   REMARKS
BWI AIRPORT    PTCLDY    78  54  43 SE6       30.01R
MD SCIENCE CTR   N/A     78  54  43 MISG      30.02R
MARTIN STATE   PTCLDY    77  59  53 CALM      30.03R
ANNAPOLIS      CLEAR     75  54  47 S6        30.02R
FORT MEADE*    CLEAR     70  61  73 CALM      30.04R

$$

MDZ012-015-019>023-260100-
MARYLAND EASTERN SHORE

CITY           SKY/WX    TMP DP  RH WIND       PRES   REMARKS
OCEAN CITY     CLEAR     73  64  73 S3        30.04R
SALISBURY      NOT AVBL
BAY BRIDGE AP*   N/A     77  52  41 S5        30.02R
CAMBRIDGE*     CLEAR     73  61  64 CALM      30.03R
EASTON*        CLEAR     77  57  50 CALM      30.06R

$$

MDZ017>025-260100-
SOUTHERN MARYLAND

CITY           SKY/WX    TMP DP  RH WIND       PRES   REMARKS
PATUXENT RIVER PTCLDY    75  60  59 S5        30.02R
ST INIGOES     CLEAR     74  62  66 E3        30.02R
LEONARDTOWN*   CLEAR     72  59  64 CALM      30.05R

$$

MDZ003>005-260100-
NORTH CENTRAL MARYLAND

CITY           SKY/WX    TMP DP  RH WIND       PRES   REMARKS
FREDERICK*     CLEAR     77  61  57 CALM      30.04R
HAGERSTOWN APT CLEAR     77  54  44 S6        30.02R
WESTMINSTER*   CLEAR     77  61  57 CALM      30.03S

$$

MDZ501>502-260100-
WESTERN MARYLAND

CITY           SKY/WX    TMP DP  RH WIND       PRES   REMARKS
OAKLAND*       CLEAR     64  52  63 CALM      30.10F
CUMBERLAND*    CLEAR     81  54  39 CALM      30.04S

$$

VAZ025>031-260100-
SHENANDOAH VALLEY

CITY           SKY/WX    TMP DP  RH WIND       PRES   REMARKS
WINCHESTER*    CLEAR     77  59  53 SE6       30.02R
STAUNTON*      PTCLDY    76  62  62 SE3       30.06R

$$

WVZ021-048>050-054>055-260100-
EASTERN WEST VIRGINIA PANHANDLE

CITY           SKY/WX    TMP DP  RH WIND       PRES   REMARKS
MARTINSBURG    CLEAR     76  58  53 CALM      30.02R
PETERSBURG*    PTCLDY    78  53  41 CALM      30.02S

$$

VAZ036>039-050-260100-
CENTRAL FOOTHILLS

CITY           SKY/WX    TMP DP  RH WIND       PRES   REMARKS
CHARLOTTESVILL CLEAR     76  63  64 S5        30.03R
ORANGE*        CLEAR     77  63  61 CALM      30.04R

$$

VAZ055>057-260100-
NORTH AND CENTRAL PIEDMONT

CITY           SKY/WX    TMP DP  RH WIND       PRES   REMARKS
FREDERICKSBRG* CLEAR     78  67  68 S5        30.02R
STAFFORD*      CLEAR     76  63  64 CALM      30.06R

$$

NCZ024-NYZ072-PAZ021-071-VAZ022-071-260100-
OTHER REGIONAL OBSERVATIONS

CITY           SKY/WX    TMP DP  RH WIND       PRES   REMARKS
NEW YORK CITY    N/A     76  56  49 SW3       30.01
PHILADELPHIA   PTCLDY    80  56  43 SW10      30.00R
PITTSBURGH     MOCLDY    75  53  46 W6        30.01F
ROANOKE        MOCLDY    77  64  64 SE12      30.06R
RICHMOND       PTCLDY    80  61  52 S7        30.03R
RALEIGH        PTCLDY    79  67  66 E6        30.02S

$$

ANZ530>537-260100-
MARINE OBSERVATIONS

STATION/POSITION TIME  TEMP    WIND        PRES
                       AIR SEA DIR/SP/G
                 (UTC) (F)     (DEG/KT/KT) (MB)
THOMAS PT LIGHT  0000   77 80  150/  6/  7 1017.2R
BALT KEY BRIDGE  0000   78     130/  7/  8 1016.0S
COVE POINT       0000   77     200/  6/  7 1016.7R
LEWISETTA        0000   77 80  190/  7/  8 1016.8R
SOLOMONS ISLAND  0000      83                N/A
PINEY POINT      0000          320/  5/  6   N/A

$$



USA.gov is the U.S. government's official web portal to all federal, state and local government web resources and services.